[Iaude] MPEC T59: 2023 TO1 [a=1.59,e=0.36,i=24.4,H=24.4]
    mpec at marsden.cfa.harvard.edu 
    mpec at marsden.cfa.harvard.edu
       
    Fri Oct  6 20:56:51 EDT 2023
    
    
  
M.P.E.C. 2023-T59                               Issued 2023 October 7, 00:55 UT
     The Minor Planet Electronic Circulars contain information on unusual
         minor planets, routine data on comets and natural satellites,
         and occasional editorial announcements.  They are published
    on behalf of Division F of the International Astronomical Union by the
          Minor Planet Center, Smithsonian Astrophysical Observatory,
                          Cambridge, MA 02138, U.S.A.
			  
             Prepared using the Tamkin Foundation Computer Network
                              MPC at CFA.HARVARD.EDU
            URL https://www.minorplanetcenter.net/    ISSN 1523-6714
                                    2023 TO1                                    
Observations:
     K23T01O*1C2023 10 05.12391422 36 52.549+12 51 08.06         20.34GVET059G96
     K23T01O 1C2023 10 05.12954022 36 48.654+12 52 36.84         20.41GVET059G96
     K23T01O 1C2023 10 05.13516122 36 44.788+12 54 05.80         20.35GVET059G96
     K23T01O  C2023 10 05.17964822 36 09.80 +13 07 30.7                WET059X09
     K23T01O  C2023 10 05.18803322 36 03.90 +13 09 43.8                WET059X09
     K23T01O KC2023 10 05.28924222 34 56.816+13 34 43.43         20.82GVET059I52
     K23T01O KC2023 10 05.29068622 34 55.805+13 35 05.82         20.44GVET059I52
     K23T01O 7C2023 10 05.78134322 29 33.468+15 43 25.22         20.2 GVET059Z84
     K23T01O 7C2023 10 05.78982922 29 27.565+15 45 38.25         20.8 GVET059Z84
     K23T01O KC2023 10 06.07681722 26 12.29 +17 00 01.2          20.8 VuET059H21
     K23T01O KC2023 10 06.08130722 26 09.11 +17 01 11.1          20.9 VuET059H21
     K23T01O KC2023 10 06.08271022 26 08.12 +17 01 32.8          20.9 VuET059H21
     K23T01O KC2023 10 06.08968022 26 05.327+17 03 26.68         20.48GVET059I52
     K23T01O KC2023 10 06.09118822 26 04.261+17 03 50.33         20.46GVET059I52
     K23T01O KC2023 10 06.09269922 26 03.203+17 04 14.34         20.55GVET059I52
     K23T01O KC2023 10 06.13079422 25 35.80 +17 14 02.8          20.5 GXET059858
     K23T01O KC2023 10 06.13787022 25 30.74 +17 15 52.3          20.0 GXET059858
     K23T01O KC2023 10 06.14450122 25 26.04 +17 17 34.9          20.0 GXET059858
     K23T01O KB2023 10 06.83726522 17 34.67 +20 13 14.8          20.6 GVET059I93
     K23T01O KC2023 10 06.84319022 17 29.24 +20 14 42.8          20.7 GVET059L01
     K23T01O KC2023 10 06.84466822 17 28.19 +20 15 05.3          20.4 GVET059L01
     K23T01O KB2023 10 06.84480722 17 29.29 +20 15 07.5          20.4 GVET059I93
     K23T01O KC2023 10 06.84614622 17 27.15 +20 15 27.1          20.7 GVET059L01
     K23T01O KC2023 10 06.84762622 17 26.09 +20 15 48.5          20.8 GVET059L01
     K23T01O KB2023 10 06.85227822 17 23.96 +20 16 58.9          20.1 GVET059I93
Observer details:
858 Tebbutt Observatory, Edgewood.  Observer F. B. Zoltowski.  0.51-m f/8.1
    Schmidt-Cassegrain + CCD.
G96 Mt. Lemmon Survey.  Observer G. J. Leonard.  Measurers E. C. Beshore, D.
    Fay, J. B. Fazekas, D. C. Fuls, A. R. Gibbs, A. D. Grauer, H. Groeller, J.
    K. Hogan, R. A. Kowalski, S. M. Larson, G. J. Leonard, D. Rankin, R. L.
    Seaman, F. C. Shelly, K. W. Wierzchos.  1.5-m reflector + 10K CCD.
H21 Astronomical Research Observatory, Westfield.  Observer R. Holmes.
    Measurers T. Linder, R. Holmes, L. Horn.  0.81-m f/4.0 astrograph + CCD.
I52 Steward Observatory, Mt. Lemmon Station.  Observer D. Rankin.  Measurers
    E. C. Beshore, D. Fay, J. B. Fazekas, D. C. Fuls, A. R. Gibbs, A. D.
    Grauer, H. Groeller, J. K. Hogan, R. A. Kowalski, S. M. Larson, G. J.
    Leonard, D. Rankin, R. L. Seaman, F. C. Shelly, K. W. Wierzchos.  1.0-m
    prime focus + CCD.
I93 St Pardon de Conques.  Observer F. Losse.  0.40-m f/3.7 reflector + CMO.
L01 Visnjan Observatory, Tican.  Observer K. Korlevic.  1.0-m f/2.9 reflector
    + CCD.
X09 Deep Random Survey, Rio Hurtado.  Observers A. Schnabel, D. Ruhela.
    Measurers D. Ruhela, S. Deen.  0.43-m reflector + CMOS.
Z84 Calar Alto-Schmidt.  Observers F. Ocana, M. Micheli, R. Kresken, L.
    Conversi.  Measurers F. Ocana, M. Micheli.  0.8-m f/3 Schmidt + CCD.
Orbital elements:
2023 TO1                                                 Earth MOID = 0.0821 AU
Epoch 2023 Sept. 13.0 TT = JDT 2460200.5                Veres                   
M 331.21210              (2000.0)            P               Q                  
n   0.49388454     Peri.   43.02995     +0.66481995     -0.74584637             
a   1.5850845      Node     5.77054     +0.52240515     +0.42443844             
e   0.3604994      Incl.   24.41828     +0.53395440     +0.51338601             
P   2.00           H   24.42          G   0.15           U   9                  
Residuals in seconds of arc
231005 G96  0.5-  0.6+    231006 H21  0.1-  0.3+    231006 I93  0.2+  0.8+
231005 G96  0.2-  0.1-    231006 H21  0.1-  0.5+    231006 L01  0.3-  0.2-
231005 G96  0.5+  0.5-    231006 H21  0.1-  0.4+    231006 L01  0.2-  0.1+
231005 X09  0.2+  0.7+    231006 I52  0.0   0.2-    231006 I93  0.2+  0.0
231005 X09  0.5-  1.6+    231006 I52  0.0   0.0     231006 L01  0.0   0.3-
231005 I52  0.1+  0.2-    231006 I52  0.1+  0.5+    231006 L01  0.0   1.1-
231005 I52  0.0   0.5-    231006 858  0.4+  0.3+    231006 I93  0.2+  1.0-
231005 Z84  0.0   0.2+    231006 858  0.1-  0.2+
231005 Z84  0.3+  0.1-    231006 858  0.1+  0.0
Ephemeris:
2023 TO1                 a,e,i = 1.59, 0.36, 24                  q = 1.0137
Date    TT    R. A. (2000) Decl.     Delta      r    Elong.  Phase     V
2023 09 07    01 24 30.7 -41 22 40   0.2534  1.1940   132.6    38.5    23.4
...
2023 09 22    00 30 27.8 -29 31 28   0.1396  1.1268   149.8    26.6    21.6
...
2023 09 30    23 29 31.9 -08 42 06   0.09791 1.0955   162.6    15.9    20.4
...
2023 10 06    22 27 02.8 +16 40 37   0.09041 1.0746   144.2    32.9    20.7
2023 10 07    22 15 42.4 +20 54 14   0.09175 1.0714   139.8    37.0    20.9
2023 10 08    22 04 15.0 +24 55 27   0.09380 1.0683   135.4    41.0    21.0
...
2023 10 14    20 56 41.8 +43 01 11   0.1174  1.0510   114.0    60.2    22.0
...
2023 10 22    19 42 27.7 +54 04 45   0.1646  1.0326    98.5    72.5    23.1
...
2023 11 06    18 18 33.5 +60 28 43   0.2611  1.0146    87.6    77.5    24.2
M. P. C. Staff               (C) Copyright 2023 MPC           M.P.E.C. 2023-T59
    
    
More information about the Iaude
mailing list